Theta_e
288 289 289 290 290 290 290 290 290 290 291 293 293 291 290 288 287 285 284 284 284 283 282 281 281 281 281 281 281 280 280 279 279 279 279 279 280 280 280 279 279 279 278 278 278 278 277 277 277 277 277 277 277 277 277 277 276 277 276 276 276 276
288 288 289 288 288 288 288 288 288 288 289 290 291 290 289 287 286 284 283 283 283 283 282 281 281 281 280 280 280 280 280 280 280 279 279 280 280 280 280 279 279 278 278 277 278 277 277 277 277 277 277 277 277 277 277 276 276 276 276 275 276 276
287 287 288 288 287 287 287 288 287 288 288 288 289 289 287 286 285 284 284 283 283 282 281 281 280 280 280 279 280 280 280 279 280 280 280 280 280 279 279 278 278 278 278 277 278 277 277 277 277 277 276 277 276 277 276 275 275 275 274 275 275 275
286 286 285 285 286 286 286 287 287 287 287 288 287 288 287 287 285 284 284 283 283 282 281 281 280 280 280 279 279 279 279 279 280 280 279 279 279 278 278 278 278 278 278 278 277 277 277 277 277 276 276 277 276 276 276 275 275 275 274 274 274 274
286 286 286 286 286 286 286 286 287 287 286 286 286 287 287 287 286 284 284 283 282 282 281 281 280 280 279 279 279 279 279 279 279 279 279 279 278 278 278 278 278 278 278 278 278 277 277 277 277 277 277 277 277 276 275 275 275 274 273 273 273 273
285 285 285 285 285 286 286 287 287 287 286 286 286 286 286 286 285 284 283 283 282 281 281 280 280 280 279 279 279 279 279 279 279 279 279 279 278 277 277 277 278 278 278 278 277 277 277 277 278 278 277 277 276 276 276 275 275 275 274 273 273 273
285 285 285 285 285 286 286 286 286 286 286 285 285 285 285 285 285 284 283 282 282 281 281 280 280 280 279 279 279 278 278 278 279 279 279 278 278 277 277 277 278 278 278 278 277 278 278 278 278 277 277 277 277 276 275 275 274 274 273 273 273 274
285 285 285 285 285 286 286 286 286 286 286 285 285 285 284 284 284 284 283 283 282 281 281 280 280 280 280 280 279 279 278 279 279 279 279 278 278 277 277 277 278 278 278 278 278 279 279 278 277 277 277 277 276 276 275 275 274 274 273 272 272 273
285 285 285 285 285 285 286 286 286 286 286 285 284 285 284 284 284 284 284 283 282 281 281 281 280 280 280 280 280 279 278 278 279 279 278 278 278 277 277 278 278 278 278 278 279 279 278 278 277 277 277 276 276 275 275 274 274 274 273 272 272 273
285 285 285 285 285 285 285 286 286 286 285 285 284 284 284 284 283 283 284 282 282 281 281 281 281 280 280 280 280 279 279 278 278 278 278 278 278 278 278 278 278 278 278 279 279 278 278 277 277 277 276 276 275 275 275 275 274 273 273 273 273 273
285 285 285 285 285 284 285 285 285 285 285 285 284 284 284 284 283 283 283 282 282 282 282 281 281 280 280 280 280 279 279 279 279 279 278 278 278 279 279 279 279 278 278 278 278 278 277 277 277 277 276 276 275 275 275 275 274 274 273 273 273 273
286 285 285 285 285 284 284 285 285 285 285 285 284 283 284 283 283 283 282 282 282 282 281 281 281 281 281 280 280 280 279 279 278 278 278 279 279 279 279 278 279 279 278 278 277 277 277 277 277 278 280 279 276 275 275 275 274 274 273 273 272 272
286 285 285 285 285 285 285 285 285 285 285 285 284 284 283 283 283 283 282 282 282 282 282 282 281 281 281 280 280 280 279 279 279 279 279 279 279 278 278 279 278 278 279 278 277 277 276 277 277 280 282 282 281 277 275 275 274 273 273 273 272 272
286 286 286 286 286 285 285 285 285 285 285 285 284 284 283 283 283 283 283 283 283 282 282 282 281 281 280 280 280 280 280 280 279 278 278 278 278 278 279 278 278 278 278 278 277 277 277 276 279 281 282 283 283 281 276 275 274 273 273 272 272 272
287 287 287 286 286 286 286 285 284 284 285 284 284 283 282 282 282 283 283 283 282 282 281 281 281 281 280 280 280 280 280 279 279 278 278 278 278 278 278 278 278 278 278 277 277 277 277 276 280 282 283 284 284 284 279 274 274 273 273 272 272 272
288 288 288 287 287 286 285 285 285 285 284 284 283 282 282 282 282 282 282 282 282 281 280 280 281 280 280 280 280 280 279 279 278 279 279 278 278 278 278 278 278 278 277 277 277 277 276 276 280 283 283 284 285 285 282 274 274 272 272 272 272 272
288 287 286 286 285 284 284 284 284 284 283 283 282 282 282 282 282 282 282 281 281 280 280 280 280 280 280 280 280 279 279 279 278 278 278 278 278 278 278 278 277 277 277 277 277 276 276 276 280 282 284 284 285 286 284 273 272 271 271 272 272 272
288 287 286 285 285 284 284 284 284 283 282 282 282 281 281 281 281 280 280 280 280 280 280 280 280 280 280 280 279 278 279 278 278 278 278 278 278 278 278 278 278 278 277 277 276 276 275 276 281 282 283 284 286 286 282 273 272 271 271 271 271 272
287 287 286 285 285 284 283 283 283 282 281 281 281 281 280 281 280 280 281 280 279 279 280 280 280 280 280 279 278 278 278 278 278 278 278 277 278 278 278 277 278 278 277 276 276 275 275 275 279 282 283 284 286 286 279 273 272 271 270 271 271 272
284 284 285 284 283 283 283 283 283 282 281 281 280 280 280 280 280 280 280 280 280 280 280 280 280 280 279 279 278 278 279 279 279 278 278 277 277 277 277 277 277 276 276 275 274 274 274 274 277 281 283 283 285 285 279 275 274 273 272 271 272 271
284 283 283 283 282 282 282 283 282 282 282 282 281 281 280 280 280 280 281 281 281 280 280 280 280 280 279 279 279 279 279 279 278 278 277 277 277 277 276 275 275 274 273 274 274 275 274 274 275 280 282 283 284 284 280 276 274 273 273 272 272 271
283 282 283 282 282 281 282 282 282 282 282 282 282 282 281 282 282 282 282 282 281 281 281 280 280 280 280 279 279 279 279 279 277 277 277 276 276 276 275 274 274 274 273 272 272 272 273 273 272 274 280 282 284 285 281 275 274 273 273 272 272 271
284 283 282 282 281 282 282 283 283 283 282 282 282 282 283 283 284 283 283 282 281 281 280 280 280 280 280 280 279 279 278 278 278 277 276 276 275 274 273 273 273 273 273 272 271 270 271 271 271 272 278 280 282 284 284 276 275 275 275 273 271 270
282 282 281 281 282 282 283 283 282 282 282 282 282 283 284 284 283 283 282 281 281 281 280 280 280 280 280 279 279 278 277 277 278 277 276 275 274 274 273 272 272 272 272 271 270 269 270 271 273 270 275 279 281 283 285 280 276 276 273 272 271 270
282 281 281 281 282 282 283 284 283 283 283 282 283 283 283 282 282 282 281 281 280 279 279 279 279 279 279 278 278 278 277 276 276 275 275 274 274 273 273 273 272 271 271 270 270 270 269 269 269 274 272 276 279 281 282 284 282 281 275 272 272 272
281 281 280 281 282 283 285 285 284 283 283 283 282 281 281 281 281 281 280 279 279 279 279 278 278 278 278 278 278 278 277 276 275 274 274 274 274 273 272 272 271 270 270 270 271 271 270 269 268 271 274 274 276 278 280 281 283 284 278 273 273 273
281 281 280 281 282 283 285 285 284 282 282 281 281 281 281 280 280 280 279 279 278 278 278 277 277 277 277 277 277 277 277 275 274 274 272 272 273 272 272 272 271 271 271 270 271 272 270 268 267 265 269 274 275 277 278 279 280 281 282 280 277 275
282 281 281 280 281 282 283 283 284 283 282 279 280 280 280 279 279 279 279 278 277 277 276 276 276 276 276 276 277 277 277 276 274 275 273 272 272 272 272 272 271 270 270 270 271 271 268 265 264 264 264 269 272 273 276 278 278 279 279 279 279 281
282 281 281 280 279 279 280 279 279 280 279 278 279 279 279 279 279 278 277 277 276 275 275 276 275 274 274 274 274 275 275 275 274 274 273 272 272 272 271 271 270 270 269 269 270 268 266 264 262 262 262 262 263 265 267 270 271 275 277 276 276 277
281 280 280 278 277 277 277 276 274 274 276 276 277 277 278 278 278 277 276 275 274 274 274 275 271 273 273 272 273 274 272 271 273 273 273 272 272 271 271 270 270 270 270 269 268 266 265 267 264 261 261 262 262 263 263 264 265 266 267 269 271 272
280 279 278 276 275 276 275 272 270 269 271 272 272 275 277 276 274 274 272 271 272 272 271 272 272 272 273 270 267 265 266 270 269 271 269 266 267 270 270 270 270 269 266 268 267 266 267 266 265 265 270 266 270 266 263 263 264 265 265 269 273 272
278 276 275 273 273 273 271 268 267 266 266 266 266 270 273 272 271 270 268 269 268 267 267 267 266 265 266 267 266 265 265 270 274 270 269 267 271 275 277 276 269 266 265 265 264 265 267 267 265 274 276 276 276 277 276 274 273 272 269 271 274 273
273 273 272 270 269 268 266 264 263 263 263 263 265 267 270 271 271 268 267 267 267 266 266 265 264 263 263 264 264 264 265 264 267 276 276 275 275 275 276 277 277 277 274 269 262 266 275 275 276 277 277 278 278 278 278 278 278 278 278 278 275 272
272 272 270 269 267 266 264 262 261 260 261 262 263 265 268 269 271 269 267 265 264 266 265 264 264 264 264 262 262 263 263 264 264 265 273 275 275 276 277 277 277 277 277 277 275 269 266 273 277 277 277 277 277 277 277 278 278 278 278 278 279 273
270 269 268 267 265 264 262 261 260 260 260 260 262 264 267 267 268 267 265 264 265 264 265 264 264 263 263 262 262 260 262 263 263 263 262 264 273 274 274 276 276 277 276 277 277 278 276 275 276 277 277 277 277 277 277 278 278 278 278 278 275 274
268 267 266 264 262 261 260 259 259 258 258 259 260 263 265 265 264 264 264 264 264 264 263 262 262 262 261 261 260 259 260 259 258 257 258 258 259 263 269 273 273 274 274 275 275 275 275 275 275 275 275 276 275 275 275 275 274 276 277 276 274 274
266 265 264 263 261 260 259 258 258 257 257 257 258 262 263 263 263 262 262 262 262 261 261 261 261 260 259 259 259 258 259 259 258 258 257 256 258 257 258 255 258 266 272 270 270 272 273 273 273 273 273 273 273 273 273 272 268 267 268 269 268 268
263 262 261 261 260 259 259 257 257 257 256 256 258 261 261 261 262 261 261 260 260 260 259 258 259 259 259 258 257 257 257 258 259 257 256 257 256 254 254 254 253 256 264 268 268 269 270 271 271 271 271 271 271 270 269 262 261 262 263 263 264 265
Wind_Speed
10 11 11 10 9 9 10 9 9 8 8 11 13 14 13 13 10 9 8 10 9 10 11 12 10 9 10 9 9 9 10 10 9 9 8 7 7 8 8 8 8 8 7 7 7 6 6 5 6 6 6 6 7 5 6 4 4 6 4 3 4 3
10 11 11 12 12 11 9 9 7 9 9 9 10 10 10 10 11 10 11 10 10 10 10 10 10 10 9 10 11 11 11 10 10 9 9 9 7 7 8 8 8 8 9 7 8 7 6 6 5 6 6 6 6 6 6 4 4 5 5 3 2 2
9 9 8 8 6 6 7 9 11 10 8 10 10 13 12 12 11 10 11 10 10 11 12 11 10 11 9 9 10 11 10 9 9 9 8 8 8 8 9 9 9 8 8 8 8 8 8 7 7 5 6 7 7 5 5 4 5 5 4 3 3 2
8 6 5 5 7 8 10 9 8 10 11 11 10 10 11 12 11 10 10 9 10 11 11 11 8 9 8 10 10 10 10 9 9 8 8 9 8 8 9 9 8 8 8 8 8 7 7 7 7 6 6 7 7 6 5 6 6 6 5 4 4 3
9 10 11 11 12 12 11 11 12 12 10 9 9 11 11 11 11 9 9 10 9 10 10 9 9 9 10 11 10 11 10 9 8 8 10 9 9 7 8 9 9 9 8 8 8 7 7 7 7 6 7 7 8 8 6 6 7 8 7 6 5 5
7 8 9 10 10 11 12 11 10 10 10 10 9 12 11 10 9 9 9 8 9 9 9 10 9 11 11 12 10 11 10 9 9 8 9 9 8 9 7 7 9 9 9 9 8 8 8 8 7 7 6 8 8 8 8 7 7 7 7 7 6 6
10 12 11 12 12 11 11 12 12 11 11 10 11 9 9 10 9 10 9 9 10 10 10 11 10 12 12 12 10 11 10 10 10 9 10 9 9 8 8 7 7 9 9 10 10 10 9 9 9 8 7 6 6 6 7 7 7 6 6 6 6 6
9 10 11 11 11 12 12 12 12 11 11 11 9 10 10 10 9 10 11 10 11 11 12 12 11 12 13 12 11 12 11 10 10 10 8 9 10 9 8 10 9 9 10 9 10 10 9 8 8 8 8 8 7 6 6 6 7 6 6 6 6 6
13 12 11 12 11 11 11 12 12 11 11 11 10 10 10 11 11 11 12 11 11 11 12 12 12 11 11 11 10 9 8 9 8 9 10 9 10 11 10 9 10 8 9 9 9 9 9 9 8 8 7 7 7 7 7 7 6 6 6 5 6 6
10 12 13 12 12 10 10 10 11 12 13 13 11 11 11 10 11 12 12 12 11 12 13 11 10 10 10 8 8 8 8 8 8 9 8 8 10 11 11 12 11 9 8 8 9 8 7 8 7 7 7 7 8 8 7 7 7 7 6 6 5 5
14 14 12 12 10 13 13 10 11 11 11 12 13 13 14 12 12 12 12 12 13 13 11 10 9 8 9 9 9 9 10 10 10 8 8 9 9 9 10 9 9 10 9 7 8 8 7 8 8 7 8 8 8 8 8 8 8 8 7 6 6 5
11 10 10 11 14 14 13 14 14 14 15 14 12 12 11 11 13 13 13 13 13 11 10 10 10 10 10 11 11 11 11 10 10 10 10 10 9 8 8 9 9 9 10 10 8 7 7 7 6 7 12 10 9 9 7 7 7 7 7 7 6 5
8 8 11 15 16 17 16 15 13 11 11 12 13 14 12 12 13 13 13 13 11 10 10 10 11 10 12 11 10 8 10 11 9 9 9 9 9 9 9 9 10 10 9 10 9 10 8 7 7 12 15 16 15 9 8 8 8 7 7 7 8 8
11 13 15 17 16 15 14 14 13 12 14 13 13 12 11 12 13 13 13 12 11 11 11 11 11 11 11 10 10 10 8 8 8 9 9 8 9 9 8 9 10 9 8 8 8 9 9 8 9 15 16 16 16 12 8 7 6 7 7 7 8 7
14 16 15 12 13 15 17 13 11 15 14 11 10 9 11 13 12 12 11 11 11 10 10 10 11 11 9 9 8 8 8 8 8 8 9 11 8 5 8 10 9 9 8 8 9 10 9 8 11 16 16 16 17 17 11 5 6 7 7 8 8 7
9 12 14 12 11 11 8 11 12 8 7 8 7 10 10 11 11 11 10 9 9 9 9 9 9 9 8 7 8 8 8 8 10 8 6 5 5 8 8 7 8 7 9 9 9 9 7 9 11 16 17 17 17 17 13 6 7 6 7 8 8 7
10 8 8 9 9 8 9 8 8 8 8 9 10 8 9 9 9 8 9 9 8 8 8 9 9 9 8 8 8 7 8 9 7 7 7 7 9 9 10 10 9 8 8 7 7 8 8 9 12 15 17 17 18 18 13 7 6 6 6 7 7 8
9 9 8 5 9 10 10 10 8 10 9 8 10 8 7 8 8 8 7 8 8 9 9 9 8 8 8 8 8 8 9 9 9 9 7 7 7 5 5 5 6 9 9 8 7 7 10 8 14 16 16 17 17 18 9 7 7 7 7 7 8 8
7 9 7 8 9 9 9 9 9 10 10 10 9 9 8 8 9 9 9 9 8 8 9 10 10 9 8 8 8 8 8 8 8 7 6 8 8 9 9 9 9 8 8 8 9 10 10 8 12 17 17 17 18 13 7 7 7 7 8 10 8 8
3 5 8 8 8 9 10 11 11 11 11 11 10 10 9 9 10 9 8 9 9 10 10 10 9 9 8 8 9 9 8 7 5 7 6 9 9 10 11 8 7 6 7 9 10 11 10 10 9 15 16 17 18 13 9 8 8 8 9 9 7 7
5 7 7 9 10 8 10 12 13 12 11 11 11 11 11 11 10 9 10 9 8 8 8 8 8 8 9 9 9 9 9 9 9 7 6 7 7 8 5 5 6 6 6 7 9 8 9 9 8 13 16 16 18 13 8 8 8 9 9 8 9 7
8 7 9 9 9 9 11 11 11 10 10 9 10 11 11 12 10 8 7 7 9 8 8 7 8 8 9 10 8 7 8 6 6 7 8 8 7 7 6 6 6 7 7 6 6 7 8 8 7 7 15 16 17 18 9 7 8 11 11 9 9 9
7 8 8 7 10 10 10 11 10 9 8 9 9 11 10 8 7 8 8 8 8 8 8 7 8 10 9 8 9 8 7 7 8 7 7 8 6 6 6 6 6 6 7 6 6 6 7 7 8 7 13 15 16 18 15 8 11 11 9 8 8 8
7 8 7 6 9 9 8 9 10 9 9 8 10 7 6 8 8 8 8 8 8 8 8 8 7 8 8 7 7 7 7 6 6 7 7 6 6 7 7 6 6 6 7 5 6 7 8 6 8 7 10 15 17 18 20 10 10 8 6 8 9 8
7 7 6 5 7 8 8 10 11 9 9 9 6 6 7 8 8 8 8 8 7 7 8 7 9 8 7 7 8 8 8 6 6 6 6 7 7 8 8 8 7 6 7 6 6 6 7 6 6 11 8 13 16 17 17 18 10 10 8 9 11 12
7 8 5 4 5 5 7 10 10 9 8 6 6 7 7 8 7 8 7 7 7 7 7 7 7 6 5 7 7 7 7 7 7 7 7 7 7 7 7 7 6 6 7 8 8 7 6 5 5 7 10 8 13 15 16 17 19 17 9 8 11 10
10 8 7 5 5 4 4 5 9 8 8 5 6 7 7 7 8 8 7 7 6 6 6 5 6 6 6 6 8 8 7 6 6 7 5 6 6 7 7 7 6 8 8 7 9 8 4 4 5 4 6 10 11 13 14 16 18 17 18 11 9 9
9 10 10 6 4 5 4 4 6 9 5 4 5 6 7 8 8 7 6 6 5 5 6 6 4 5 5 6 6 7 7 8 8 8 6 6 7 7 7 7 6 7 7 8 8 6 1 1 2 3 3 5 7 9 13 16 16 17 17 17 15 16
9 9 9 8 4 6 6 6 6 5 6 6 5 6 7 7 7 7 6 6 6 5 6 7 6 6 5 5 5 5 6 6 6 6 7 7 7 7 6 6 6 6 6 7 7 4 2 2 2 3 3 3 5 5 6 7 9 13 14 12 10 11
9 9 8 8 5 6 7 7 6 5 5 5 5 6 7 7 7 7 7 7 6 6 6 6 8 8 6 6 6 6 5 4 5 7 7 7 7 6 6 6 6 7 7 7 6 5 4 5 2 3 5 5 5 5 5 5 5 6 6 8 8 9
9 8 9 7 4 6 8 8 7 7 7 5 3 4 7 6 5 5 5 5 5 5 4 5 5 4 5 4 2 2 1 2 3 3 1 0 2 6 6 6 6 5 4 6 6 5 6 4 3 6 7 8 9 8 6 6 7 6 6 9 12 9
9 10 9 6 5 7 9 9 8 8 7 6 5 3 6 5 5 5 4 4 4 4 4 4 5 4 4 4 4 3 4 5 4 2 3 2 2 5 6 5 5 4 5 4 4 5 6 6 4 6 7 9 10 12 13 12 13 12 10 10 14 10
6 9 9 6 6 8 8 8 7 8 7 7 6 3 5 6 7 6 5 5 5 4 5 5 6 5 6 5 5 3 5 3 4 4 3 4 4 3 3 4 5 6 8 7 3 5 8 10 9 8 8 9 10 11 12 12 13 14 14 15 9 7
6 8 8 6 7 8 7 8 7 7 6 5 4 3 5 5 6 6 5 5 4 5 5 5 5 5 6 5 3 5 5 5 4 1 3 4 2 2 3 3 3 4 4 6 6 4 2 6 8 9 10 10 11 11 11 11 12 12 13 13 14 8
7 7 7 8 7 7 7 8 6 6 7 6 5 4 7 6 7 7 6 5 5 5 5 5 5 4 5 5 5 3 4 5 4 5 2 3 4 3 3 2 2 2 2 3 4 4 2 2 4 6 7 8 8 9 10 12 12 12 13 12 8 6
8 8 8 8 8 8 7 8 6 7 6 5 5 5 7 7 7 6 5 6 6 6 5 5 4 5 4 4 4 5 4 2 4 3 4 3 2 4 6 9 13 10 7 9 11 10 10 11 10 10 11 11 11 12 12 10 7 10 11 9 4 5
10 9 8 8 8 8 9 7 5 5 4 4 3 6 8 8 8 7 7 8 6 5 5 5 4 5 5 4 5 4 4 4 3 4 3 3 4 3 2 1 4 8 11 7 8 10 11 10 10 10 10 12 12 13 12 10 7 6 6 7 6 6
9 8 6 7 8 8 8 6 5 6 4 3 4 7 8 7 7 7 6 6 6 6 5 5 5 4 5 5 5 4 4 5 4 5 4 4 3 4 1 0 2 1 6 11 11 12 10 11 10 10 10 11 13 14 12 5 5 4 4 4 5 6
Wind_Direction
192 190 193 194 196 195 194 186 183 186 187 186 181 182 182 178 179 175 172 171 167 170 173 172 173 173 171 169 160 157 165 168 170 172 166 149 151 147 146 144 144 143 142 142 139 139 138 135 135 133 128 128 121 117 120 122 124 121 123 130 123 144
192 190 188 188 189 188 186 182 183 191 187 184 185 178 176 175 176 172 173 178 171 172 169 176 172 172 172 167 163 166 172 172 170 166 162 165 153 154 150 148 150 150 148 151 143 141 141 139 135 136 131 124 124 131 129 137 120 121 133 138 117 139
190 190 191 188 183 186 182 184 189 188 182 191 186 178 179 181 179 175 180 174 180 170 174 174 173 171 166 163 168 166 171 172 171 171 162 146 161 154 155 156 155 155 153 149 150 149 151 145 142 142 136 129 131 133 138 142 138 139 144 143 146 133
187 186 181 176 176 185 187 189 189 193 194 191 184 181 183 180 180 182 177 181 176 177 174 174 171 165 163 166 169 171 171 172 173 165 154 164 160 161 158 158 158 156 155 152 152 153 150 147 144 147 140 140 141 146 152 159 156 153 158 157 162 165
186 188 187 186 188 189 188 190 194 195 193 189 189 184 187 182 179 179 177 178 178 178 171 167 173 166 170 172 175 175 175 173 168 165 164 164 162 164 164 162 161 159 155 153 154 154 155 154 152 155 148 150 155 162 169 172 168 165 165 169 172 171
180 182 192 190 193 193 194 194 195 194 195 193 185 192 182 177 176 176 174 178 177 172 168 174 172 173 176 180 180 177 176 171 169 167 168 165 161 164 165 163 161 157 159 155 158 162 160 159 160 158 159 160 166 172 175 173 178 173 170 167 167 169
189 197 195 196 197 196 193 194 196 193 196 192 191 190 180 177 172 173 176 174 173 175 176 178 177 181 183 183 180 182 175 174 170 172 170 162 166 165 158 164 164 162 163 165 168 168 169 170 165 163 166 169 174 181 177 178 179 174 172 171 171 173
200 201 200 200 201 198 194 196 195 195 195 194 185 181 180 181 170 176 173 177 179 180 182 184 182 187 186 184 184 183 179 175 173 171 172 171 166 166 172 166 172 173 172 171 173 172 170 168 169 171 173 173 175 183 189 182 177 173 172 172 173 176
209 205 202 202 200 199 198 195 194 194 191 189 188 186 181 179 176 177 179 180 183 181 188 187 188 185 186 187 184 177 175 175 173 173 174 176 172 170 173 177 173 179 173 174 172 175 172 170 170 171 174 175 178 185 185 181 177 175 175 176 175 181
207 206 205 199 201 199 204 203 196 191 189 190 186 184 182 180 178 179 181 180 185 189 190 188 181 183 184 181 176 176 174 170 174 182 179 173 178 181 179 175 177 173 175 176 176 174 169 168 171 177 178 178 182 186 189 183 180 179 180 174 181 185
211 207 201 200 192 198 200 197 200 196 195 192 188 184 188 178 176 181 183 183 189 193 184 176 177 175 172 173 173 176 177 179 180 178 178 185 187 186 182 175 171 168 174 172 175 172 170 177 183 183 182 180 189 192 189 186 185 182 179 182 187 194
213 204 197 197 200 199 197 198 199 198 193 192 187 187 187 169 182 181 185 190 193 183 175 174 173 175 174 173 181 183 179 178 176 179 185 191 190 182 177 174 176 178 178 174 176 176 178 187 190 185 187 191 188 189 189 185 188 186 183 183 188 202
210 194 198 204 202 201 199 201 198 194 195 191 188 189 183 178 180 186 187 191 185 176 170 171 177 173 180 183 177 177 178 178 178 182 187 188 188 184 180 177 180 185 183 180 178 181 189 192 193 190 197 199 198 190 190 188 190 188 187 189 187 200
205 204 207 207 205 199 198 198 195 189 200 194 190 184 173 179 184 185 186 184 177 175 173 174 172 176 181 175 180 179 177 174 176 183 187 187 189 192 181 183 189 185 182 181 184 191 194 198 194 197 201 202 201 194 193 193 188 189 196 194 199 205
211 210 213 209 201 199 203 189 178 197 195 187 185 167 175 183 183 182 183 180 176 173 170 169 173 177 176 180 175 170 170 177 180 186 188 197 194 173 184 195 184 188 185 184 189 198 199 203 199 202 203 204 205 201 189 194 194 193 199 199 204 205
222 218 215 209 204 199 183 183 191 185 165 165 161 176 180 179 182 180 178 171 172 165 165 167 169 173 173 169 170 170 176 177 191 192 189 177 178 193 195 193 193 188 190 194 197 201 200 207 204 204 205 206 206 204 190 192 195 203 204 205 206 207
222 217 207 200 183 165 158 175 172 156 154 157 164 170 170 177 172 172 171 170 164 157 160 165 169 171 169 170 170 172 179 184 185 184 187 187 194 194 197 195 193 197 195 197 198 200 206 212 204 205 206 208 208 207 192 184 194 202 213 216 214 214
216 206 202 158 158 170 171 169 151 146 150 144 151 155 163 165 168 166 159 164 163 165 165 162 162 165 168 169 169 176 185 185 188 188 185 191 201 206 198 205 198 200 200 199 195 202 215 216 205 207 209 210 210 208 194 180 193 206 215 221 220 218
198 194 168 165 163 155 155 140 139 136 139 147 152 150 156 162 170 174 172 167 159 159 161 166 170 173 167 165 170 181 185 186 189 190 179 193 202 200 202 203 204 200 196 198 198 205 219 217 209 209 211 212 211 207 189 184 194 211 216 226 221 221
155 143 146 144 146 147 140 143 143 142 147 152 150 151 160 172 185 179 169 168 167 170 169 168 163 163 165 165 179 187 192 190 190 193 183 195 198 204 208 203 200 199 199 200 205 207 213 221 211 212 214 214 213 207 196 190 198 215 221 231 229 221
131 132 127 133 138 147 144 145 144 147 154 157 159 159 165 182 182 174 176 173 162 156 155 159 162 165 168 178 187 186 190 192 194 187 176 202 205 215 200 191 201 209 209 210 213 211 216 229 216 215 219 218 217 213 199 191 200 216 226 223 235 230
106 112 133 145 148 141 141 140 145 148 151 154 155 164 178 184 178 169 152 144 149 154 155 159 163 170 175 187 188 185 194 180 166 178 185 196 199 201 196 198 204 211 219 210 214 219 219 225 227 217 223 223 222 219 204 192 193 223 227 221 229 234
123 138 143 139 138 140 141 141 138 144 148 154 164 182 178 158 149 151 152 146 146 152 159 164 171 179 187 186 188 185 182 180 185 177 181 191 193 191 198 202 208 217 227 212 218 221 231 224 229 224 222 228 228 226 218 200 215 224 226 227 233 232
96 97 99 121 133 134 136 134 136 140 148 160 184 172 133 143 145 142 147 154 156 159 164 170 178 183 185 179 166 171 183 184 176 180 183 179 180 195 206 205 211 219 232 226 221 224 232 226 222 227 226 229 232 233 231 221 226 220 217 242 244 242
98 100 109 116 125 134 138 138 139 148 160 174 163 134 137 137 145 149 149 147 149 158 166 172 176 179 174 174 175 175 183 171 172 175 171 178 186 197 206 211 211 218 234 239 236 232 233 230 232 229 227 233 238 241 244 244 240 208 208 222 245 246
91 91 82 85 106 126 139 141 146 154 156 146 131 133 133 139 139 135 137 145 155 160 168 174 175 172 166 168 166 172 173 173 178 178 184 183 185 194 209 219 207 219 234 239 246 238 231 225 219 236 239 240 242 249 252 256 258 249 222 207 240 248
115 107 92 83 97 105 117 132 136 140 139 144 134 135 133 131 131 134 142 150 157 164 160 154 161 167 171 170 168 174 179 177 169 180 188 176 192 198 209 218 199 214 229 237 245 248 227 200 202 215 230 240 245 248 250 255 259 264 266 255 246 237
112 113 110 87 79 87 83 93 127 132 132 119 120 124 125 128 129 137 147 147 151 152 145 152 161 167 174 173 181 186 183 178 181 187 181 184 200 203 209 216 202 220 227 238 247 257 245 164 171 191 205 223 238 244 245 247 249 252 253 254 262 260
104 101 103 95 60 71 66 73 58 84 111 112 116 119 124 127 132 134 138 151 147 142 154 160 167 167 169 176 178 182 178 174 177 181 182 188 198 205 212 216 211 225 229 242 254 259 247 233 187 191 203 222 226 241 251 254 261 264 264 265 266 270
112 112 105 96 85 81 81 74 68 63 85 95 107 118 121 128 141 148 156 153 153 158 164 167 163 164 171 178 173 176 178 181 171 184 195 193 195 192 213 204 217 220 224 236 245 249 265 253 219 206 214 229 221 236 237 242 251 248 243 254 258 260
117 118 113 109 105 96 82 69 55 38 44 43 67 111 119 125 124 124 134 140 141 156 155 152 158 162 156 144 110 58 75 151 177 184 179 22 160 190 195 205 222 221 218 220 225 233 262 270 240 240 218 216 214 211 211 230 234 237 241 244 254 263
123 121 112 103 91 82 75 60 48 38 29 25 18 57 111 110 106 102 97 95 91 84 87 75 70 62 75 96 104 88 45 40 111 143 164 222 242 211 219 191 205 200 185 193 226 195 217 247 233 240 255 254 252 248 241 231 227 226 227 238 253 257
103 105 97 89 78 75 69 59 36 29 20 21 12 48 109 120 107 97 95 91 86 91 91 89 81 73 77 82 103 123 123 77 21 71 124 147 167 176 195 214 216 200 178 169 205 246 234 244 262 273 277 282 284 282 282 280 277 273 269 267 257 247
99 101 103 90 85 83 75 66 40 26 9 8 6 52 94 95 105 107 99 93 98 92 91 96 110 110 107 92 105 124 138 137 140 345 50 107 146 182 186 218 237 258 260 225 207 183 280 281 269 277 286 286 286 287 289 289 282 279 275 271 267 250
100 100 99 98 98 90 83 73 41 16 6 5 7 40 79 80 99 110 111 113 109 106 110 114 113 119 117 131 118 111 120 135 152 166 216 356 39 72 40 17 16 3 355 351 341 349 37 49 14 0 8 357 348 324 304 292 286 279 274 275 272 265
102 100 100 96 91 87 76 63 26 10 356 0 12 59 81 81 83 98 120 128 126 114 110 106 114 109 105 109 114 124 120 118 138 135 130 116 28 17 43 58 46 44 40 33 46 45 36 27 22 17 11 13 9 6 3 7 4 358 352 349 317 290
95 89 86 90 85 80 72 60 18 358 349 2 23 81 84 86 88 87 77 76 85 94 99 100 102 112 116 111 115 119 113 118 100 115 110 125 131 132 112 335 347 11 45 51 33 25 28 28 25 22 17 15 11 12 6 18 18 8 356 5 6 2
89 91 85 87 89 86 79 53 3 356 352 11 55 81 82 83 86 83 82 75 77 86 90 92 97 102 105 108 105 103 109 103 105 96 98 93 97 115 113 334 347 341 353 48 37 29 23 24 25 28 29 26 27 27 31 40 9 17 5 5 348 355